Tracking 31011 objects as of 13-Jul-2025
HD Live streaming from Space Station
objects crossing your sky now

CZ-6A DEB

Track CZ-6A DEB now!
10-day predictions


NORAD ID: 54908
Int'l Code: 2022-151QV
Perigee: 583.6 km
Apogee: 669.9 km
Inclination: 98.7 °
Period: 97.1 minutes
Semi major axis: 6997 km
RCS: Unknown
Launch date: November 11, 2022
Source: People's Republic of China (PRC)
Launch site: Taiyaun Space Center, China (TSC)

Note: This is SATELLITE DEBRIS
Your satellite tracking list
Your tracking list is empty




NASA's NSSDC Master Catalog

Two Line Element Set (TLE):
1 54908U 22151QV  25193.87900883  .00018034  00000-0  21453-2 0  9993
2 54908  98.6573 249.2971 0061627 219.4357 140.2360 14.83077442137910
Source of the keplerian elements: AFSPC